www.pogodaiklimat.ru

Погода и климат >> Архив погоды >> Великобритания >> Аэродром Andrewsfield


ПОГОДА на Аэродроме Andrewsfield

  • Прогноз погоды на Аэродроме Andrewsfield
  • Монитор погоды на Аэродроме Andrewsfield

АРХИВ ПОГОДЫ на Аэродроме Andrewsfield

Время (UTC), дата Ветер
(напр.,м/с)
 
Видим.   Явления Облачность Т
(С)
Тd
(С)
f
(%)
Тe
(С)
Тes
(С)
Комфортность P
(гПа)
Po
(гПа)
Тmin
(С)
Tmax
(С)
R
(мм)
R24
(мм)
S
(см)
22 13.06 ЮЗ 5 >70 км н/о +12.1 +10.8 92 +10 +10 1007.6 997.2
23 13.06 ЮЗ 5 65 км н/о +11.9 +10.8 93 +9 +9 1008.2 997.8
00 14.06 ЮЗ 4 60 км н/о +11.5 +10.5 94 +9 +9 1008.3 997.8 0.0
01 14.06 Ю 3 28 км н/о +11.5 +10.9 96 +10 +10 1008.3 997.8
02 14.06 Ю 3 17 км в посл. час дождь н/о +11.9 +11.3 96 +10 +10 1008.2 997.8
03 14.06 Ю 3 13 км в посл. час дождь н/о +12.1 +11.3 95 +10 +10 1008.4 997.9
04 14.06 Ю 3 35 км н/о +12.1 +11.3 95 +10 +10 1008.7 998.2
05 14.06 Ю 4 35 км слаб. ливневой дождь н/о +12.2 +11.1 93 +10 +10 1008.9 998.5
06 14.06 Ю 4 45 км в посл. час дождь н/о +12.6 +11.3 92 +11 +11 1009.1 998.7 +11.1 0.0
07 14.06 Ю 5 70 км н/о +13.7 +11.2 85 +12 +12 1009.3 998.9
08 14.06 Ю 5 >70 км ливневой дождь н/о +14.1 +11.3 83 +12 +12 1009.8 999.4
09 14.06 Ю 7 >70 км в посл. час дождь н/о +15.1 +10.6 74 +13 +13 1009.8 999.5
10 14.06 ЮЗ 7 >70 км н/о +15.4 +10.8 74 +14 +14 1010.1 999.7
11 14.06 ЮЗ 6 >70 км н/о +16.3 +10.8 70 +15 +15 1010.3 1000.0
12 14.06 ЮЗ 4 >70 км в посл. час дождь н/о +15.3 +12.7 84 +14 +14 1010.5 1000.2 0.4
13 14.06 ЮЗ 7 30 км н/о +16.1 +11.6 75 +15 +15 1010.6 1000.3
14 14.06 ЮЗ 6 >70 км в посл. час дождь н/о +16.3 +11.3 72 +15 +15 1010.8 1000.4
15 14.06 ЮЗ 5 >70 км в посл. час дождь н/о +16.2 +11.6 74 +15 +15 1011.0 1000.7
16 14.06 ЮЗ 6 70 км н/о +16.4 +11.0 70 +15 +15 1010.9 1000.6
17 14.06 Ю 6 >70 км н/о +16.6 +10.8 69 +16 +16 1010.9 1000.6
18 14.06 Ю 5 >70 км н/о +17.2 +10.0 63 +17 +17 1011.2 1000.9 +18.1 0.8
19 14.06 ЮЗ 4 >70 км н/о +16.4 +9.7 65 +16 +16 1011.2 1000.9
20 14.06 Ю 3 >70 км н/о +15.0 +9.3 69 +15 +15 1011.6 1001.2
21 14.06 Ю 2 65 км н/о +13.3 +9.6 78 +13 +13 1012.2 1001.8
22 14.06 Ю 2 60 км н/о +12.6 +9.3 80 +12 +12 1012.4 1001.9
23 14.06 Ю 3 50 км н/о +12.3 +9.2 81 +11 +11 1012.4 1002.0
00 15.06 Ю 1 55 км н/о +12.1 +9.5 84 +12 +12 1012.2 1001.7
01 15.06 ЮЗ 2 35 км н/о +11.2 +9.3 88 +10 +10 1012.2 1001.7
02 15.06 З 2 40 км н/о +10.5 +9.2 92 +9 +9 1011.7 1001.1
03 15.06 ЮЗ 2 50 км н/о +11.3 +9.8 90 +10 +10 1011.9 1001.4
04 15.06 Ю 2 50 км н/о +11.2 +9.3 88 +10 +10 1012.4 1001.9
05 15.06 Ю 1 40 км н/о +11.0 +9.6 91 +12 +12 1012.4 1001.9
06 15.06 Ю 1 45 км н/о +11.7 +9.8 88 +11 +11 1012.5 1002.0 +10.2
07 15.06 ЮЗ 2 30 км н/о +13.4 +10.9 85 +13 +13 1012.5 1002.0
08 15.06 ЮЗ 4 >70 км н/о +15.1 +10.3 73 +14 +14 1012.6 1002.2
09 15.06 ЮЗ 6 >70 км н/о +15.9 +10.2 69 +15 +15 1012.6 1002.2
10 15.06 ЮЗ 5 >70 км н/о +17.2 +10.2 63 +17 +17 1012.2 1001.9
11 15.06 Ю 6 >70 км н/о +18.1 +11.1 64 +18 +18 1012.2 1001.9
12 15.06 Ю 5 >70 км н/о +16.9 +10.0 64 +16 +16 1012.6 1002.3
13 15.06 ЮЗ 6 >70 км н/о +16.9 +8.6 58 +16 +16 1012.6 1002.3
14 15.06 ЮЗ 5 >70 км н/о +16.5 +9.5 63 +16 +16 1012.9 1002.6
15 15.06 ЮЗ 6 >70 км н/о +16.6 +9.6 63 +16 +16 1012.9 1002.6
16 15.06 ЮЗ 6 >70 км в посл. час дождь н/о +16.5 +10.7 69 +15 +15 1012.8 1002.5
17 15.06 ЮЗ 6 >70 км н/о +17.3 +11.3 68 +17 +17 1012.7 1002.4
18 15.06 Ю 6 >70 км н/о +16.4 +10.7 69 +15 +15 1012.8 1002.5 +18.7 0.0
19 15.06 Ю 4 40 км слаб. ливневой дождь н/о +14.8 +11.4 80 +14 +14 1013.2 1002.8
20 15.06 Ю 3 45 км слаб. морось с дождем н/о +13.3 +12.1 92 +12 +12 1013.3 1002.8
21 15.06 Ю 3 30 км в посл. час дождь н/о +12.7 +12.0 96 +11 +11 1013.8 1003.3
22 15.06 Ю 3 30 км н/о +11.9 +11.3 96 +10 +10 1014.1 1003.6
23 15.06 ЮЗ 3 18 км н/о +11.3 +10.9 97 +10 +10 1014.3 1003.8
00 16.06 ЮЗ 2 9000 м дымка н/о +10.2 +9.9 98 +8 +8 1014.8 1004.3 0.2
01 16.06 ЮЗ 3 4400 м в посл. час туман н/о +9.5 +9.3 99 +7 +7 1015.0 1004.4
02 16.06 ЮЗ 3 10 км н/о +9.3 +9.2 99 +7 +7 1015.2 1004.6
03 16.06 ЮЗ 2 6000 м дымка н/о +8.2 +7.6 96 +6 +6 1015.5 1004.8
04 16.06 ЮЗ 2 4900 м дымка н/о +7.9 +7.7 99 +6 +6 1015.7 1005.0
05 16.06 Ю 2 8000 м дымка н/о +9.0 +8.9 99 +7 +7 1015.6 1005.0
06 16.06 ЮЗ 4 13 км н/о +10.9 +10.5 97 +8 +8 1016.0 1005.4 +7.8 0.2
07 16.06 ЮЗ 5 24 км н/о +12.6 +11.5 93 +10 +10 1016.2 1005.7
08 16.06 ЮЗ 5 40 км н/о +13.7 +11.8 88 +12 +12 1016.3 1005.8
09 16.06 ЮЗ 5 14 км н/о +14.6 +11.2 80 +13 +13 1016.4 1005.9
10 16.06 Ю 4 35 км в посл. час дождь н/о +15.1 +14.0 93 +14 +14 1016.3 1005.9
11 16.06 ЮЗ 6 70 км в посл. час дождь н/о +15.4 +13.5 88 +14 +14 1016.1 1005.7
12 16.06 Ю 7 >70 км н/о +17.1 +12.9 76 +16 +16 1015.9 1005.5 0.4
13 16.06 ЮЗ 8 >70 км н/о +18.5 +13.3 72 +18 +18 1015.7 1005.4
14 16.06 ЮЗ 9
{13}
>70 км н/о +19.5 +11.7 61 +20 +20 1015.8 1005.5
15 16.06 ЮЗ 8 >70 км н/о +18.8 +11.6 63 +19 +19 1016.2 1005.9
16 16.06 ЮЗ 9
{13}
>70 км н/о +19.1 +12.1 64 +19 +19 1016.4 1006.1
17 16.06 ЮЗ 8
{14}
>70 км н/о +17.7 +11.4 67 +17 +17 1016.8 1006.5
18 16.06 ЮЗ 6 70 км н/о +17.4 +12.1 71 +17 +17 1017.2 1006.8 +20.3 0.4
19 16.06 ЮЗ 6 >70 км н/о +17.2 +11.1 67 +16 +16 1017.2 1006.9
20 16.06 ЮЗ 5 >70 км н/о +15.9 +10.2 69 +15 +15 1017.6 1007.2
21 16.06 ЮЗ 4 >70 км н/о +14.0 +10.7 80 +13 +13 1018.1 1007.7
22 16.06 Ю 4 60 км н/о +13.3 +10.3 82 +12 +12 1018.3 1007.8
23 16.06 Ю 3 50 км н/о +12.4 +10.3 87 +11 +11 1018.2 1007.7
00 17.06 Ю 3 40 км н/о +11.8 +10.1 89 +10 +10 1018.2 1007.6
01 17.06 Ю 3 28 км н/о +11.4 +10.4 94 +9 +9 1018.3 1007.7
02 17.06 Ю 3 22 км н/о +11.2 +10.4 95 +9 +9 1018.0 1007.5
03 17.06 Ю 3 25 км н/о +11.3 +10.5 95 +9 +9 1018.0 1007.4
04 17.06 Ю 3 20 км н/о +10.9 +10.2 95 +9 +9 1018.1 1007.5
05 17.06 Ю 3 23 км н/о +11.7 +10.9 95 +10 +10 1018.3 1007.7
06 17.06 ЮЗ 4 35 км н/о +13.5 +11.8 89 +12 +12 1018.4 1007.9 +10.8
07 17.06 Ю 5 40 км н/о +14.7 +11.8 83 +13 +13 1018.7 1008.2
08 17.06 ЮЗ 6 60 км н/о +15.3 +10.9 75 +14 +14 1018.4 1008.0
09 17.06 ЮЗ 6 >70 км н/о +16.3 +10.4 68 +15 +15 1018.2 1007.8
10 17.06 ЮЗ 6 70 км н/о +18.0 +11.9 68 +17 +17 1017.9 1007.6
11 17.06 ЮЗ 7 70 км н/о +18.0 +10.2 60 +17 +17 1017.5 1007.2
12 17.06 ЮЗ 6 17 км н/о +19.7 +12.0 61 +21 +21 комфорт 1017.1 1006.9
13 17.06 ЮЗ 6 >70 км н/о +20.3 +10.9 55 +22 +22 комфорт 1016.6 1006.3
14 17.06 ЮЗ 6 70 км н/о +20.8 +11.4 55 +23 +23 комфорт 1016.5 1006.2
15 17.06 ЮЗ 6 >70 км н/о +20.6 +10.9 54 +22 +22 комфорт 1015.9 1005.7
16 17.06 ЮЗ 6 >70 км н/о +20.1 +10.8 55 +21 +21 комфорт 1015.8 1005.6
17 17.06 ЮЗ 5 >70 км н/о +20.1 +11.5 58 +22 +22 комфорт 1015.7 1005.5
18 17.06 ЮЗ 5 >70 км н/о +19.9 +10.4 54 +21 +21 комфорт 1015.6 1005.3 +21.3
19 17.06 ЮЗ 5 >70 км н/о +19.3 +9.9 54 +20 +20 1015.6 1005.3
20 17.06 З 4 >70 км н/о +17.3 +9.7 61 +17 +17 1015.9 1005.5
21 17.06 ЮЗ 2 >70 км н/о +14.9 +10.7 76 +15 +15 1016.2 1005.7
22 17.06 Ю 2 >70 км н/о +15.1 +10.1 72 +15 +15 1016.5 1006.0
23 17.06 ЮЗ 2 50 км н/о +12.8 +9.8 82 +12 +12 1016.6 1006.1
00 18.06 ЮЗ 1 40 км н/о +11.6 +9.5 87 +11 +11 1016.5 1005.9
01 18.06 З 2 30 км н/о +10.8 +8.9 88 +9 +9 1016.4 1005.8
02 18.06 ЮЗ 2 29 км н/о +9.6 +8.5 93 +8 +8 1016.2 1005.5
03 18.06 З 2 25 км н/о +10.3 +9.5 95 +9 +9 1015.7 1005.2
04 18.06 ЮЗ 1 30 км н/о +10.4 +9.4 94 +11 +11 1015.5 1004.9
05 18.06 Ю 2 24 км н/о +10.8 +9.5 92 +10 +10 1015.7 1005.1
06 18.06 ЮЗ 2 24 км н/о +11.9 +10.4 91 +11 +11 1015.8 1005.3 +9.4
07 18.06 З 2 35 км н/о +13.6 +11.2 85 +13 +13 1015.6 1005.2
08 18.06 ЮЗ 2 45 км н/о +15.4 +11.3 77 +16 +16 1015.3 1004.9
09 18.06 Ю 2 9000 м н/о +16.7 +10.9 69 +17 +17 1014.9 1004.6
10 18.06 Ю 2 >70 км н/о +18.2 +11.3 64 +19 +19 1014.5 1004.2
11 18.06 ЮЗ 2 >70 км н/о +18.9 +11.0 60 +20 +20 1014.5 1004.2
12 18.06 ЮЗ 3 300 м туман н/о +19.4 +11.9 62 +21 +21 комфорт 1014.1 1003.9
13 18.06 ЮЗ 2 28 км в посл. час туман н/о +18.7 +12.3 66 +20 +20 1014.1 1003.9
14 18.06 ЮВ 2 21 км дождь н/о +17.5 +13.1 75 +18 +18 1013.7 1003.4
15 18.06 СВ 3 45 км слаб. ливневой дождь н/о +17.5 +13.4 77 +18 +18 1012.7 1002.4
16 18.06 В 2 11 км ливневой дождь н/о +17.0 +13.4 79 +18 +18 1012.7 1002.3
17 18.06 СВ 2 15 км слаб. дождь н/о +15.9 +15.0 94 +16 +16 1012.3 1002.0
18 18.06 СВ 2 10 км в посл. час дождь н/о +15.9 +15.3 96 +16 +16 1011.7 1001.3 +19.9 1
19 18.06 В 2 15 км в посл. час дождь н/о +16.0 +15.1 94 +16 +16 1011.2 1000.9
20 18.06 С 1 8000 м слаб. ливневой дождь н/о +15.5 +14.8 96 +16 +16 1011.3 1001.0
21 18.06 СВ 2 4800 м в посл. час дождь н/о +14.7 +14.3 97 +14 +14 1011.2 1000.8
22 18.06 СВ 2 4700 м в посл. час дождь н/о +14.6 +14.4 99 +14 +14 1010.8 1000.5
23 18.06 В 4 7000 м ливневой дождь н/о +14.5 +14.0 97 +13 +13 1009.7 999.4
00 19.06 СВ 2 11 км ливневой дождь н/о +13.7 +12.7 94 +13 +13 1009.6 999.2 0.2
01 19.06 С 2 11 км слаб. дождь н/о +13.0 +12.5 97 +12 +12 1009.3 998.9
02 19.06 СВ 4 9000 м в посл. час дождь н/о +12.4 +12.1 98 +10 +10 1008.0 997.5
03 19.06 СВ 2 5000 м дымка н/о +11.6 +11.4 99 +10 +10 1007.5 997.0
04 19.06 С 3 3900 м дымка н/о +11.5 +11.5 100 +10 +10 1006.9 996.5
05 19.06 С 3 5000 м дымка н/о +12.1 +12.1 100 +11 +11 1006.5 996.0
06 19.06 С 2 3000 м дымка н/о +12.6 +12.5 99 +12 +12 1006.6 996.2 +11.2 0.4
07 19.06 С 2 600 м туман н/о +12.8 +12.8 100 +12 +12 1007.1 996.7
08 19.06 ЮВ 1 1500 м в посл. час дождь н/о +13.4 +13.3 99 +13 +13 1007.3 996.9
09 19.06 СЗ 2 4900 м дымка н/о +14.0 +13.6 97 +13 +13 1007.1 996.8
10 19.06 З 2 7000 м в посл. час дождь н/о +14.6 +13.8 95 +14 +14 1007.4 997.0
11 19.06 СЗ 2 6000 м в посл. час туман н/о +15.6 +14.0 90 +15 +15 1007.1 996.8
12 19.06 СЗ 3 12 км н/о +16.7 +14.4 86 +17 +17 1007.3 997.0 0.0
13 19.06 СЗ 2 25 км н/о +17.8 +15.0 84 +18 +18 1007.4 997.2
14 19.06 СЗ 2 9000 м ливневой дождь н/о +17.9 +14.8 82 +19 +19 1007.2 997.0
15 19.06 З 1 14 км в посл. час дождь н/о +18.0 +15.2 84 +19 +19 1007.1 996.9
16 19.06 СЗ 4 400 м сильн. дождь н/о +15.6 +14.4 93 +15 +15 1007.5 997.2
17 19.06 СЗ 1 10 км слаб. дождь н/о +16.1 +15.6 97 +17 +17 1007.2 996.9
18 19.06 С 1 800 м сильн. дождь н/о +15.9 +15.2 96 +17 +17 1007.8 997.5 +18.5 8
19 19.06 Ю 1 8000 м в посл. час дождь н/о +15.8 +15.2 96 +16 +16 1007.8 997.5
20 19.06 Ю 2 4900 м дымка н/о +15.8 +15.4 97 +16 +16 1007.9 997.6
21 19.06 ЮЗ 2 5000 м дымка н/о +15.2 +14.9 98 +15 +15 1008.3 998.0
22 19.06 ЮЗ 2 2500 м дымка н/о +15.0 +14.8 99 +15 +15 1008.5 998.2
23 19.06 ЮЗ 2 2700 м слаб. ливневой дождь н/о +14.9 +14.8 99 +15 +15 1008.7 998.4
00 20.06 З 2 1900 м в посл. час дождь н/о +14.6 +14.6 100 +14 +14 1008.8 998.5 0.8
01 20.06 З 2 6000 м в посл. час дождь н/о +14.5 +14.5 100 +14 +14 1009.0 998.6
02 20.06 З 2 7000 м в посл. час дождь н/о +13.9 +13.5 97 +14 +14 1009.0 998.6
03 20.06 З 2 6000 м ливневой дождь н/о +13.3 +12.9 97 +12 +12 1009.1 998.7
04 20.06 З 3 8000 м в посл. час дождь н/о +13.0 +12.8 99 +12 +12 1009.4 999.0
05 20.06 З 3 10 км дымка н/о +13.1 +12.8 98 +12 +12 1009.8 999.4
06 20.06 З 3 11 км дымка н/о +13.8 +13.4 97 +13 +13 1010.1 999.7 +12.7 1
07 20.06 З 4 55 км н/о +14.3 +11.8 85 +13 +13 1010.6 1000.2
08 20.06 З 4 н/о н/о +15.2 +11.3 78 +14 +14 1010.9 1000.6
09 20.06 З 5 >70 км н/о +16.3 +10.2 67 +15 +15 1011.2 1000.8
10 20.06 З 5 >70 км н/о +17.4 +10.8 65 +17 +17 1011.4 1001.1
11 20.06 З 5 >70 км н/о +16.1 +10.2 68 +15 +15 1012.0 1001.6
12 20.06 З 5 >70 км н/о +16.8 +10.2 65 +16 +16 1012.1 1001.8
13 20.06 З 5 >70 км н/о +17.4 +10.9 66 +17 +17 1012.3 1002.0
14 20.06 З 5 >70 км н/о +16.3 +10.3 68 +15 +15 1012.6 1002.2
15 20.06 ЮЗ 5 >70 км н/о +18.4 +10.7 61 +18 +18 1012.3 1002.1
16 20.06 З 6 >70 км н/о +17.5 +9.6 60 +17 +17 1012.6 1002.3
17 20.06 З 5 >70 км н/о +18.1 +9.6 58 +18 +18 1012.9 1002.6
18 20.06 З 3 >70 км н/о +16.4 +10.0 66 +16 +16 1013.1 1002.8 +18.5
19 20.06 СЗ 1 >70 км в посл. час дождь н/о +15.5 +11.7 78 +17 +17 1013.5 1003.1
20 20.06 ЮЗ 6 >70 км н/о +15.3 +10.1 71 +14 +14 1013.8 1003.5

 

Местоположение метеостанции Аэродром Andrewsfield (Великобритания): широта 51.88 долгота 0.45 высота над уровнем моря 87 м.

В архиве по умолчанию представлена погода на Аэродроме Andrewsfield за последнюю неделю. Архивные данные за месяц целиком и за предыдущие месяцы, начиная с января 2011 года, Вы можете получить, выбрав интересующий диапазон дат из раскрывающегося списка и нажав кнопку "Ввод!".


*Определитесь, кто Вы:
робот инопланетянин человек

Внимание! Время в таблицах - всемирное. Для получения местного времени необходимо прибавить поправку, которая равна 0 ч.

Смотрите также архив погоды в соседних городах и на ближайших метеорологических станциях:

Погода в Ротамстеде (Великобритания) (11 км)
Погода в Уоттишаме (Великобритания) (45 км)
Погода в Шоберинессе (Великобритания) (45 км)
Погода в Грейвзенде (Великобритания) (47 км)
Погода в Лондоне (Великобритания) (58 км)
Погода в Норхолте (Великобритания) (70 км)
Погода в Бедфорде (Великобритания) (74 км)
Погода на Аэродроме Кенли (Великобритания) (74 км)
Погода в Аэропорту Хитроу (Великобритания) (76 км)
Погода в Мархеме (Великобритания) (86 км)

Пояснения к столбцам:

Ветер - указаны скорость ветра в м/с - средняя за 10 мин, порывы в срок и между сроками (в фигурных скобках) и направление, откуда дует ветер: С - северный, СВ - северо-восточный, В - восточный, ЮВ - юго-восточный, Ю - южный, ЮЗ - юго-западный, З - западный, СЗ - северо-западный.
Видимость - горизонтальная дальность видимости в метрах или километрах. При видимости от 1 до 10 км при отсутствии осадков обычно наблюдается дымка, при ухудшении видимости до 1 км и менее - туман. В сухую погоду видимость может ухудшаться дымом, пылью или мглою.
Явления - указаны атмосферные явления, наблюдавшиеся в срок или в последний час перед сроком; фигурными скобками обозначены явления, наблюдавшиеся между сроками (за 1-3 часа до срока); квадратными скобками обозначены град или гололедные отложения с указанием их диаметра в мм.
Облачность - указаны через наклонную черту общая и нижняя облачность в баллах и высота нижней границы облаков в метрах; квадратными скобками обозначены формы облаков: Ci - перистые, Cs - перисто-слоистые, Cc - перисто-кучевые, Ac - высококучевые, As - высокослоистые, Sc - слоисто-кучевые, Ns - слоисто-дождевые, Cu - кучевые, Cb - кучево-дождевые. Подробнее классификацию облаков см. в Атласе облаков (PDF).
T - Температура воздуха - температура, измеренная на высоте 2 м над землей.
Td - Температура точки росы - температура, при понижении до которой содержащийся в воздухе водяной пар достигнет насыщения.
f - Относительная влажность воздуха - влажноcть воздуха, измеренная на высоте 2 м над землей.
Te - Эффективная температура - температура, которую ощущает одетый по сезону человек в тени. Характеристика душности погоды. При расчете учитывается влияние влажности воздуха и скорости ветра на теплоощущения человека.
Tes - Эффективная температура на солнце - температура, которую ощущает человек, с поправкой на солнечный нагрев. Характеристика знойности погоды. Зависит от высоты солнца над горизонтом, облачности и скорости ветра. Ночью, в пасмурную погоду, а также при ветре 12 м/с и более поправка равна нулю.
P - Атмосферное давление - приведенное к уровню моря атмосферное давление.
Po - Атмосферное давление - измеренное на уровне метеостанции атмосферное давление.
Tmin - Минимальная температура - минимум температуры воздуха на высоте 2 м над землей.
Tmax - Максимальная температура - максимум температуры воздуха на высоте 2 м над землей.
R - Количество осадков - Количество выпавших осадков за период времени, мм. При наведении курсора мыши на число - период времени, за который выпало указанное количество осадков.
R24 - Количество осадков - Количество выпавших осадков за 24 часа, мм.
S - Снежный покров - Высота снежного покрова, см. При наведении курсора мыши на число - состояние снежного покрова и степень покрытия местности в баллах.